CW1160 Weather Reports


Display with metric or nautical units.
time (UTC)temp
F
wind
direction
speed
MPH
gust
MPH
rain 1hr
in
rain 24hr
in
rain mn
in
humidity
%
barometer
mb
20190627105214 73 338 6.0 11.0 0.00 0.00 0.00 56 1029.6
20190627104709 72 311 4.0 12.0 0.00 0.00 0.00 56 1029.8
20190627104211 72 36 7.0 12.0 0.00 0.00 0.00 57 1029.8
20190627103726 71 317 3.0 12.0 0.00 0.00 0.00 56 1029.7
20190627103227 71 319 4.0 14.0 0.00 0.00 0.00 57 1029.7
20190627102722 71 323 8.0 14.0 0.00 0.00 0.00 57 1029.7
20190627102224 71 322 10.0 14.0 0.00 0.00 0.00 56 1029.8
20190627101719 71 319 6.0 11.0 0.00 0.00 0.00 58 1029.6
20190627101221 71 61 6.0 11.0 0.00 0.00 0.00 57 1029.8
20190627100716 70 259 5.0 11.0 0.00 0.00 0.00 57 1029.6
20190627100213 71 360 6.0 10.0 0.00 0.00 0.00 56 1029.8
20190627095726 70 355 2.0 10.0 0.00 0.00 0.00 58 1029.7
20190627095228 70 343 5.0 11.0 0.00 0.00 0.00 58 1029.8
20190627094722 70 11 6.0 11.0 0.00 0.00 0.00 56 1029.8
20190627094224 70 63 6.0 11.0 0.00 0.00 0.00 58 1029.8
20190627093719 70 22 3.0 7.0 0.00 0.00 0.00 57 1029.7
20190627093214 69 74 3.0 12.0 0.00 0.00 0.00 59 1029.7
20190627092716 69 86 8.0 12.0 0.00 0.00 0.00 57 1029.8
20190627092210 69 309 4.0 10.0 0.00 0.00 0.00 58 1029.8
20190627091712 69 338 6.0 10.0 0.00 0.00 0.00 59 1029.9
20190627091236 69 63 4.0 9.0 0.00 0.00 0.00 60 1029.8
20190627090709 68 334 5.0 12.0 0.00 0.00 0.00 62 1029.8
20190627090224 69 11 7.0 12.0 0.00 0.00 0.00 59 1029.8
20190627085727 68 288 3.0 11.0 0.00 0.00 0.00 59 1029.8
20190627085220 68 113 3.0 11.0 0.00 0.00 0.00 60 1029.8
20190627084722 68 323 6.0 11.0 0.00 0.00 0.00 61 1029.7
20190627084217 68 332 6.0 11.0 0.00 0.00 0.00 60 1029.7
20190627083720 68 59 3.0 9.0 0.00 0.00 0.00 63 1029.7
20190627083214 67 325 3.0 10.0 0.00 0.00 0.00 63 1029.7
20190627082708 67 40 3.0 10.0 0.00 0.00 0.00 63 1029.7
20190627082210 67 22 4.0 8.0 0.00 0.00 0.00 62 1029.7
20190627081732 66 62 3.0 11.0 0.00 0.00 0.00 63 1029.8
20190627081227 66 57 6.0 11.0 0.00 0.00 0.00 64 1029.8
20190627080722 66 46 5.0 10.0 0.00 0.00 0.00 65 1029.9
20190627080224 65 297 3.0 10.0 0.00 0.00 0.00 64 1030.0
20190627075719 66 39 5.0 11.0 0.00 0.00 0.00 64 1030.1
20190627075221 65 92 3.0 11.0 0.00 0.00 0.00 65 1030.0
20190627074716 65 18 5.0 12.0 0.00 0.00 0.00 66 1030.0
20190627074218 65 11 7.0 12.0 0.00 0.00 0.00 66 1030.0
20190627073713 65 19 5.0 11.0 0.00 0.00 0.00 66 1030.0
20190627073208 65 360 5.0 11.0 0.00 0.00 0.00 66 1030.1
20190627072710 64 38 4.0 11.0 0.00 0.00 0.00 67 1029.9
20190627072232 64 11 3.0 11.0 0.00 0.00 0.00 68 1030.1
20190627071727 64 336 6.0 11.0 0.00 0.00 0.00 67 1030.0
20190627071230 63 341 4.0 9.0 0.00 0.00 0.00 69 1030.0
20190627070724 63 344 2.0 6.0 0.00 0.00 0.00 69 1030.1
20190627070211 63 304 2.0 10.0 0.00 0.00 0.00 70 1029.9
20190627065713 62 36 4.0 11.0 0.00 0.00 0.00 71 1029.9
20190627065208 62 76 6.0 12.0 0.00 0.00 0.00 71 1030.0
20190627064710 62 309 6.0 12.0 0.00 0.00 0.00 72 1029.9
20190627064233 62 44 5.0 12.0 0.00 0.00 0.00 72 1029.9
20190627063726 62 24 5.0 10.0 0.00 0.00 0.00 75 1029.8
20190627063220 61 19 5.0 10.0 0.00 0.00 0.00 74 1029.8
20190627062723 61 37 6.0 12.0 0.00 0.00 0.00 75 1029.8
20190627062217 60 53 7.0 12.0 0.00 0.00 0.00 74 1029.7
20190627061720 61 13 4.0 13.0 0.00 0.00 0.00 74 1029.7
20190627061215 61 16 5.0 12.0 0.00 0.00 0.00 74 1029.6
20190627060715 61 5 5.0 13.0 0.00 0.00 0.00 75 1029.7
20190627060210 61 336 7.0 13.0 0.00 0.00 0.00 75 1029.6
20190627055731 60 338 4.0 12.0 0.00 0.00 0.00 75 1029.6
20190627055226 60 32 4.0 15.0 0.00 0.00 0.00 77 1029.6
20190627054728 59 332 6.0 15.0 0.00 0.00 0.00 77 1029.6
20190627054224 59 23 4.0 12.0 0.00 0.00 0.00 78 1029.5
20190627053726 59 360 6.0 13.0 0.00 0.00 0.00 79 1029.5
20190627053220 59 333 6.0 13.0 0.00 0.00 0.00 79 1029.4
20190627052715 59 19 7.0 13.0 0.00 0.00 0.00 80 1029.4
20190627052218 59 350 4.0 11.0 0.00 0.00 0.00 80 1029.3
20190627051713 59 61 4.0 9.0 0.00 0.00 0.00 80 1029.3
20190627051215 58 355 4.0 12.0 0.00 0.00 0.00 81 1029.3
20190627050709 58 21 6.0 12.0 0.00 0.00 0.00 81 1029.2
20190627050210 58 355 4.0 9.0 0.00 0.00 0.00 81 1029.2
20190627045722 58 344 4.0 10.0 0.00 0.00 0.00 82 1029.2
20190627045221 58 332 4.0 11.0 0.00 0.00 0.00 82 1029.2
20190627044715 58 355 3.0 11.0 0.00 0.00 0.00 83 1029.2
20190627044217 58 22 4.0 10.0 0.00 0.00 0.00 82 1029.2
20190627043711 58 355 5.0 9.0 0.00 0.00 0.00 82 1029.2
20190627043234 58 51 4.0 8.0 0.00 0.00 0.00 82 1029.2
20190627042709 58 340 3.0 8.0 0.00 0.00 0.00 82 1029.2
20190627042230 58 42 4.0 7.0 0.00 0.00 0.00 82 1029.2
20190627041725 59 44 3.0 11.0 0.00 0.00 0.00 83 1029.1
20190627041227 59 5 5.0 11.0 0.00 0.00 0.00 82 1029.2
20190627040721 59 329 5.0 11.0 0.00 0.00 0.00 82 1029.2
20190627040209 59 29 5.0 10.0 0.00 0.00 0.00 81 1029.2
20190627035710 59 49 5.0 10.0 0.00 0.00 0.00 82 1029.1
20190627035232 59 65 4.0 9.0 0.00 0.00 0.00 82 1029.2
20190627034724 59 34 3.0 9.0 0.00 0.00 0.00 82 1029.2
20190627034226 59 10 6.0 9.0 0.00 0.00 0.00 82 1029.1
20190627033721 59 12 3.0 8.0 0.00 0.00 0.00 82 1029.1
20190627033212 59 355 4.0 10.0 0.00 0.00 0.00 83 1029.2
20190627032715 59 14 2.0 10.0 0.00 0.00 0.00 83 1029.1
20190627032210 59 28 3.0 5.0 0.00 0.00 0.00 83 1029.1
20190627031712 59 59 1.0 5.0 0.00 0.00 0.00 83 1029.1
20190627031234 59 62 3.0 9.0 0.00 0.00 0.00 83 1029.0
20190627030709 60 11 5.0 9.0 0.00 0.00 0.00 83 1028.9
20190627030223 60 360 5.0 11.0 0.00 0.00 0.00 83 1029.1
20190627025726 60 360 5.0 11.0 0.00 0.00 0.00 82 1029.0
20190627025213 60 28 4.0 9.0 0.00 0.00 0.00 83 1028.9
20190627024715 60 37 4.0 9.0 0.00 0.00 0.00 83 1028.9
20190627024209 60 314 2.0 8.0 0.00 0.00 0.00 82 1028.9
20190627023710 60 5 4.0 8.0 0.00 0.00 0.00 83 1028.9
20190627023226 60 19 3.0 8.0 0.00 0.00 0.00 83 1028.8
20190627022728 60 32 2.0 7.0 0.00 0.00 0.00 83 1028.8
20190627022223 60 5 4.0 8.0 0.00 0.00 0.00 83 1028.6
20190627021725 60 43 4.0 10.0 0.00 0.00 0.00 83 1028.7
20190627021220 60 38 5.0 10.0 0.00 0.00 0.00 83 1028.6
20190627020722 60 22 4.0 10.0 0.00 0.00 0.00 83 1028.7
20190627020217 60 360 5.0 10.0 0.00 0.00 0.00 83 1028.7
20190627015720 60 5 6.0 10.0 0.00 0.00 0.00 83 1028.7
20190627015214 60 348 3.0 11.0 0.00 0.00 0.00 83 1028.7
20190627014735 60 13 6.0 11.0 0.00 0.00 0.00 83 1028.6
20190627014210 60 332 4.0 11.0 0.00 0.00 0.00 83 1028.6
20190627013730 61 347 5.0 11.0 0.00 0.00 0.00 83 1028.7
20190627013226 61 350 4.0 11.0 0.00 0.00 0.00 83 1028.6
20190627012721 61 349 6.0 11.0 0.00 0.00 0.00 83 1028.7
20190627012222 61 333 3.0 10.0 0.00 0.00 0.00 83 1028.5
20190627011718 61 30 6.0 10.0 0.00 0.00 0.00 83 1028.6
20190627011220 61 44 4.0 10.0 0.00 0.00 0.00 83 1028.5
20190627010715 61 46 2.0 10.0 0.00 0.00 0.00 83 1028.6
20190627010209 61 9 5.0 12.0 0.00 0.00 0.00 83 1028.7
20190627005723 61 65 6.0 12.0 0.00 0.00 0.00 83 1028.6
20190627005226 61 45 6.0 11.0 0.00 0.00 0.00 83 1028.7
20190627004721 61 52 4.0 7.0 0.00 0.00 0.00 83 1028.6
20190627004223 61 42 3.0 9.0 0.00 0.00 0.00 83 1028.7
20190627003717 61 9 4.0 9.0 0.00 0.00 0.00 83 1028.7
20190627003220 61 17 4.0 9.0 0.00 0.00 0.00 83 1028.8
20190627002714 61 16 4.0 9.0 0.00 0.00 0.00 83 1028.7
20190627002217 61 5 4.0 8.0 0.00 0.00 0.00 84 1028.7
20190627001710 61 355 2.0 9.0 0.00 0.00 0.00 83 1028.7
20190627001231 61 46 2.0 10.0 0.00 0.00 0.00 84 1028.7
20190627000726 61 5 5.0 12.0 0.00 0.00 0.00 84 1028.8
20190627000225 61 345 7.0 12.0 0.00 0.00 0.00 84 1028.8
20190626235721 61 341 6.0 11.0 0.00 0.00 0.00 84 1028.8
20190626235223 61 36 4.0 10.0 0.00 0.00 0.00 84 1028.6
20190626234717 61 22 3.0 8.0 0.00 0.00 0.00 85 1028.7
20190626234212 61 360 3.0 5.0 0.00 0.00 0.00 84 1028.6
20190626233713 61 360 2.0 8.0 0.00 0.00 0.00 85 1028.7
20190626233235 61 18 4.0 8.0 0.00 0.00 0.00 85 1028.7
20190626232709 61 42 1.0 5.0 0.00 0.00 0.00 85 1028.7
20190626232232 61 15 3.0 5.0 0.00 0.00 0.00 85 1028.6
20190626231726 61 48 2.0 8.0 0.00 0.00 0.00 85 1028.7
20190626231221 61 27 1.0 8.0 0.00 0.00 0.00 85 1028.7
20190626230723 61 360 2.0 5.0 0.00 0.00 0.00 84 1028.6
20190626230218 61 47 1.0 8.0 0.00 0.00 0.00 84 1028.6
20190626225719 61 54 2.0 6.0 0.00 0.00 0.00 84 1028.7
20190626225214 61 355 2.0 7.0 0.00 0.00 0.00 84 1028.6
20190626224715 61 15 3.0 7.0 0.00 0.00 0.00 83 1028.6
20190626224210 62 360 4.0 8.0 0.00 0.00 0.00 83 1028.6
20190626223731 62 26 3.0 9.0 0.00 0.00 0.00 83 1028.4
20190626223221 62 9 4.0 10.0 0.00 0.00 0.00 83 1028.4
20190626222723 62 5 4.0 10.0 0.00 0.00 0.00 82 1028.4
20190626222217 62 360 2.0 8.0 0.00 0.00 0.00 82 1028.3
20190626221719 62 360 4.0 9.0 0.00 0.00 0.00 82 1028.4
20190626221214 63 44 4.0 11.0 0.00 0.00 0.00 82 1028.2
20190626220733 63 9 3.0 11.0 0.00 0.00 0.00 81 1028.3
20190626220220 63 9 6.0 11.0 0.00 0.00 0.00 81 1028.3
20190626215722 63 335 3.0 11.0 0.00 0.00 0.00 81 1028.1
20190626215217 63 56 4.0 12.0 0.00 0.00 0.00 80 1028.1
20190626214718 64 36 6.0 13.0 0.00 0.00 0.00 80 1028.0
20190626214213 64 5 5.0 13.0 0.00 0.00 0.00 79 1028.0
20190626213735 64 13 6.0 12.0 0.00 0.00 0.00 79 1027.9
20190626213210 65 340 7.0 10.0 0.00 0.00 0.00 79 1028.0
20190626212732 65 343 3.0 10.0 0.00 0.00 0.00 79 1027.9
20190626212227 65 17 5.0 10.0 0.00 0.00 0.00 79 1027.8
20190626211729 65 342 3.0 13.0 0.00 0.00 0.00 79 1027.8
20190626211224 66 5 4.0 13.0 0.00 0.00 0.00 78 1027.8
20190626210719 66 360 6.0 13.0 0.00 0.00 0.00 78 1027.8
20190626210221 66 55 6.0 13.0 0.00 0.00 0.00 77 1027.8
20190626205715 66 355 5.0 10.0 0.00 0.00 0.00 77 1027.7
20190626205217 67 350 4.0 9.0 0.00 0.00 0.00 76 1027.6
20190626204711 67 19 4.0 9.0 0.00 0.00 0.00 76 1027.5
20190626204213 67 343 5.0 9.0 0.00 0.00 0.00 75 1027.4
20190626203728 68 321 4.0 10.0 0.00 0.00 0.00 75 1027.3
20190626203230 68 338 5.0 10.0 0.00 0.00 0.00 75 1027.2
20190626202724 68 336 3.0 8.0 0.00 0.00 0.00 75 1027.3
20190626202226 68 17 4.0 12.0 0.00 0.00 0.00 74 1027.2
20190626201721 69 74 6.0 15.0 0.00 0.00 0.00 73 1027.2
20190626201223 69 355 4.0 15.0 0.00 0.00 0.00 73 1027.2
20190626200717 69 54 7.0 14.0 0.00 0.00 0.00 72 1027.2
20190626200212 70 5 7.0 14.0 0.00 0.00 0.00 72 1027.1
20190626195713 70 320 5.0 14.0 0.00 0.00 0.00 72 1027.0
20190626195231 71 13 6.0 14.0 0.00 0.00 0.00 72 1026.9
20190626194724 71 355 4.0 10.0 0.00 0.00 0.00 72 1026.8
20190626194218 72 360 5.0 12.0 0.00 0.00 0.00 72 1026.8
20190626193718 72 60 4.0 12.0 0.00 0.00 0.00 72 1026.8
20190626193213 72 321 4.0 12.0 0.00 0.00 0.00 71 1026.8
20190626192714 73 337 6.0 11.0 0.00 0.00 0.00 70 1026.8
20190626192209 73 22 3.0 15.0 0.00 0.00 0.00 70 1026.8
20190626191711 74 5 7.0 15.0 0.00 0.00 0.00 69 1026.7
20190626191226 74 360 4.0 14.0 0.00 0.00 0.00 68 1026.8
20190626190727 74 360 8.0 15.0 0.00 0.00 0.00 68 1026.7
20190626190214 75 319 9.0 15.0 0.00 0.00 0.00 67 1026.8
20190626185715 75 348 5.0 13.0 0.00 0.00 0.00 67 1026.7
20190626185209 76 331 7.0 12.0 0.00 0.00 0.00 66 1026.7
20190626184710 76 326 7.0 12.0 0.00 0.00 0.00 65 1026.8
20190626184226 76 5 6.0 12.0 0.00 0.00 0.00 65 1026.7
20190626183727 77 38 3.0 11.0 0.00 0.00 0.00 65 1026.7
20190626183222 77 349 4.0 13.0 0.00 0.00 0.00 64 1026.5
20190626182722 77 338 5.0 13.0 0.00 0.00 0.00 63 1026.4
20190626182215 78 336 5.0 15.0 0.00 0.00 0.00 64 1026.4
20190626181716 78 319 9.0 17.0 0.00 0.00 0.00 63 1026.4
20190626181210 78 360 8.0 17.0 0.00 0.00 0.00 62 1026.3
20190626180731 78 355 5.0 13.0 0.00 0.00 0.00 62 1026.3
20190626180226 79 360 7.0 13.0 0.00 0.00 0.00 61 1026.2
20190626175728 79 325 6.0 15.0 0.00 0.00 0.00 61 1026.2
20190626175223 79 310 7.0 15.0 0.00 0.00 0.00 60 1026.2
20190626174725 79 334 5.0 15.0 0.00 0.00 0.00 60 1026.1
20190626174220 79 340 5.0 15.0 0.00 0.00 0.00 62 1026.2
20190626173715 79 332 7.0 19.0 0.00 0.00 0.00 61 1026.2
20190626173217 79 322 8.0 19.0 0.00 0.00 0.00 61 1026.1
20190626172711 80 328 9.0 14.0 0.00 0.00 0.00 61 1026.0
20190626172213 80 307 7.0 14.0 0.00 0.00 0.00 62 1026.1
20190626171735 80 317 8.0 14.0 0.00 0.00 0.00 62 1026.0
20190626171210 80 5 6.0 17.0 0.00 0.00 0.00 62 1025.9
20190626170726 80 338 10.0 20.0 0.00 0.00 0.00 62 1026.0
20190626170225 80 329 11.0 20.0 0.00 0.00 0.00 62 1025.9
20190626165719 80 329 9.0 15.0 0.00 0.00 0.00 62 1025.9
20190626165220 81 325 9.0 16.0 0.00 0.00 0.00 62 1025.9
20190626164715 81 307 5.0 16.0 0.00 0.00 0.00 63 1025.9
20190626164217 81 350 9.0 15.0 0.00 0.00 0.00 63 1025.9
20190626163712 81 30 8.0 15.0 0.00 0.00 0.00 62 1025.9
20190626163215 81 317 8.0 13.0 0.00 0.00 0.00 61 1026.0
20190626162728 82 5 8.0 15.0 0.00 0.00 0.00 61 1025.9
20190626162229 82 327 7.0 13.0 0.00 0.00 0.00 61 1025.9
20190626161723 81 345 3.0 16.0 0.00 0.00 0.00 62 1025.9
20190626161225 81 5 9.0 16.0 0.00 0.00 0.00 60 1026.0
20190626160720 82 296 10.0 15.0 0.00 0.00 0.00 60 1026.0
20190626160213 82 335 9.0 14.0 0.00 0.00 0.00 60 1025.8
20190626155723 82 323 8.0 12.0 0.00 0.00 0.00 61 1025.9
20190626155225 82 5 5.0 14.0 0.00 0.00 0.00 61 1025.8
20190626154718 82 347 8.0 14.0 0.00 0.00 0.00 62 1025.7
20190626154220 82 92 7.0 14.0 0.00 0.00 0.00 62 1025.7
20190626153715 81 326 7.0 15.0 0.00 0.00 0.00 63 1025.8
20190626153216 81 42 6.0 15.0 0.00 0.00 0.00 62 1025.8
20190626152710 81 320 9.0 14.0 0.00 0.00 0.00 63 1025.8
20190626152232 82 336 8.0 14.0 0.00 0.00 0.00 63 1025.9
20190626151727 82 350 5.0 13.0 0.00 0.00 0.00 63 1025.9
20190626151229 81 40 5.0 14.0 0.00 0.00 0.00 64 1025.8
20190626150722 81 313 6.0 14.0 0.00 0.00 0.00 63 1025.8
20190626150217 81 19 7.0 14.0 0.00 0.00 0.00 65 1025.8
20190626145719 81 355 10.0 13.0 0.00 0.00 0.00 65 1025.8
20190626145214 81 54 7.0 11.0 0.00 0.00 0.00 66 1025.9
20190626144716 81 22 4.0 14.0 0.00 0.00 0.00 65 1025.9
20190626144211 80 293 8.0 16.0 0.00 0.00 0.00 66 1026.0
20190626143712 80 323 8.0 16.0 0.00 0.00 0.00 67 1025.9
20190626143227 81 349 6.0 16.0 0.00 0.00 0.00 66 1025.9
20190626142710 81 338 10.0 16.0 0.00 0.00 0.00 66 1025.9
20190626142225 81 331 10.0 16.0 0.00 0.00 0.00 65 1025.9
20190626141727 81 360 9.0 14.0 0.00 0.00 0.00 65 1026.0
20190626141222 81 328 8.0 14.0 0.00 0.00 0.00 67 1025.9
20190626140724 81 32 6.0 16.0 0.00 0.00 0.00 66 1025.9
20190626140218 81 15 9.0 16.0 0.00 0.00 0.00 65 1026.0
20190626135713 81 5 9.0 14.0 0.00 0.00 0.00 65 1025.9
20190626135216 81 335 8.0 15.0 0.00 0.00 0.00 65 1026.0
20190626134711 81 307 8.0 15.0 0.00 0.00 0.00 64 1026.2
20190626134213 81 336 7.0 14.0 0.00 0.00 0.00 64 1026.3
20190626133735 81 333 6.0 13.0 0.00 0.00 0.00 63 1026.2
20190626133209 82 335 6.0 17.0 0.00 0.00 0.00 60 1026.2
20190626132725 82 349 6.0 17.0 0.00 0.00 0.00 63 1026.0
20190626132228 82 323 7.0 14.0 0.00 0.00 0.00 63 1026.2
20190626131723 82 74 8.0 17.0 0.00 0.00 0.00 61 1026.2
20190626131225 82 320 9.0 17.0 0.00 0.00 0.00 62 1026.0
20190626130720 82 305 9.0 13.0 0.00 0.00 0.00 63 1026.0
20190626130215 82 355 6.0 15.0 0.00 0.00 0.00 63 1025.9
20190626125710 82 316 9.0 15.0 0.00 0.00 0.00 63 1026.1
20190626125232 83 323 6.0 16.0 0.00 0.00 0.00 64 1025.9
20190626124727 83 336 7.0 16.0 0.00 0.00 0.00 64 1025.9
20190626124228 83 338 8.0 15.0 0.00 0.00 0.00 62 1025.8
20190626123724 83 322 8.0 15.0 0.00 0.00 0.00 64 1025.7
20190626123225 83 342 7.0 13.0 0.00 0.00 0.00 63 1025.7
20190626122720 83 43 8.0 13.0 0.00 0.00 0.00 63 1025.8
20190626122216 83 275 5.0 12.0 0.00 0.00 0.00 63 1025.7
20190626121717 83 339 7.0 11.0 0.00 0.00 0.00 63 1025.7
20190626121213 83 313 5.0 12.0 0.00 0.00 0.00 62 1025.8
20190626120714 83 28 6.0 13.0 0.00 0.00 0.00 65 1025.7
20190626120210 82 9 7.0 13.0 0.00 0.00 0.00 66 1025.5
20190626115711 82 325 7.0 13.0 0.00 0.00 0.00 64 1025.7
20190626115233 83 322 7.0 11.0 0.00 0.00 0.00 65 1025.5
20190626114728 82 306 2.0 10.0 0.00 0.00 0.00 66 1025.6
20190626114230 82 346 6.0 12.0 0.00 0.00 0.00 66 1025.7
20190626113725 82 300 8.0 12.0 0.00 0.00 0.00 66 1025.6
20190626113219 82 5 6.0 13.0 0.00 0.00 0.00 67 1025.6
20190626112722 82 309 6.0 15.0 0.00 0.00 0.00 66 1025.7
20190626112217 82 341 5.0 13.0 0.00 0.00 0.00 68 1025.7
20190626111719 82 360 6.0 13.0 0.00 0.00 0.00 70 1025.6
20190626111214 81 68 7.0 12.0 0.00 0.00 0.00 68 1025.6
20190626110716 81 322 7.0 12.0 0.00 0.00 0.00 68 1025.5
20190626110211 81 5 3.0 11.0 0.00 0.00 0.00 70 1025.6
20190626105733 81 26 7.0 12.0 0.00 0.00 0.00 70 1025.6